| time (UTC) | temp F | wind direction | speed knots | gust knots | rain 1hr in | rain 24hr in | rain mn in | humidity % | barometer mb |
| 20260504110526 | 41 | 36 | 0.0 | 0.0 | 0.00 | 0.00 | 0.00 | 80 | 1012.8 |
| 20260504100443 | 42 | 243 | 0.0 | 0.9 | 0.00 | 0.00 | 0.00 | 75 | 1012.5 |
| 20260504081835 | 48 | 274 | 0.9 | 1.7 | 0.00 | 0.00 | 0.00 | 56 | 1012.7 |
| 20260504081332 | 48 | 154 | 0.9 | 0.9 | 0.00 | 0.00 | 0.00 | 56 | 1012.8 |
| 20260504080827 | 48 | 224 | 0.9 | 0.9 | 0.00 | 0.00 | 0.00 | 56 | 1012.8 |
| 20260504080325 | 48 | 87 | 0.0 | 0.9 | 0.00 | 0.00 | 0.00 | 56 | 1012.8 |
| 20260504070252 | 49 | 183 | 1.7 | 1.7 | 0.00 | 0.00 | 0.00 | 54 | 1012.6 |
| 20260504060213 | 48 | 159 | 1.7 | 1.7 | 0.00 | 0.00 | 0.00 | 56 | 1012.5 |
| 20260504050640 | 48 | 214 | 1.7 | 1.7 | 0.00 | 0.00 | 0.00 | 55 | 1012.7 |
| 20260504050138 | 48 | 227 | 0.9 | 0.9 | 0.00 | 0.00 | 0.00 | 56 | 1012.6 |
| 20260504045635 | 48 | 158 | 0.9 | 1.7 | 0.00 | 0.00 | 0.00 | 56 | 1012.6 |
| 20260504045134 | 48 | 176 | 0.9 | 1.7 | 0.00 | 0.00 | 0.00 | 56 | 1012.7 |
| 20260504044633 | 48 | 174 | 1.7 | 1.7 | 0.00 | 0.00 | 0.00 | 57 | 1012.6 |
| 20260504044129 | 49 | 152 | 1.7 | 1.7 | 0.00 | 0.00 | 0.00 | 55 | 1012.6 |
| 20260504043626 | 49 | 237 | 1.7 | 1.7 | 0.00 | 0.00 | 0.00 | 53 | 1012.6 |
| 20260504043124 | 49 | 125 | 3.5 | 6.1 | 0.00 | 0.00 | 0.00 | 53 | 1012.4 |
| 20260504042621 | 49 | 172 | 2.6 | 2.6 | 0.00 | 0.00 | 0.00 | 53 | 1012.6 |
| 20260504042117 | 49 | 168 | 1.7 | 1.7 | 0.00 | 0.00 | 0.00 | 54 | 1012.3 |
| 20260504041613 | 49 | 235 | 2.6 | 2.6 | 0.00 | 0.00 | 0.00 | 54 | 1012.2 |
| 20260504041110 | 49 | 179 | 0.9 | 1.7 | 0.00 | 0.00 | 0.00 | 54 | 1012.4 |
| 20260504040607 | 49 | 144 | 0.9 | 1.7 | 0.00 | 0.00 | 0.00 | 54 | 1012.4 |
| 20260504040103 | 49 | 238 | 1.7 | 1.7 | 0.00 | 0.00 | 0.00 | 53 | 1012.2 |
| 20260504035600 | 49 | 250 | 0.0 | 0.9 | 0.00 | 0.00 | 0.00 | 53 | 1012.4 |
| 20260504035056 | 49 | 182 | 1.7 | 1.7 | 0.00 | 0.00 | 0.00 | 54 | 1012.2 |
| 20260504034555 | 50 | 170 | 4.3 | 6.1 | 0.00 | 0.00 | 0.00 | 52 | 1012.2 |
| 20260504034051 | 50 | 230 | 2.6 | 4.3 | 0.00 | 0.00 | 0.00 | 51 | 1012.1 |
| 20260504033549 | 50 | 28 | 0.9 | 0.9 | 0.00 | 0.00 | 0.00 | 52 | 1012.1 |
| 20260504033046 | 50 | 164 | 1.7 | 1.7 | 0.00 | 0.00 | 0.00 | 51 | 1012.1 |
| 20260504032543 | 50 | 309 | 0.0 | 0.9 | 0.00 | 0.00 | 0.00 | 51 | 1012.1 |
| 20260504032040 | 50 | 231 | 1.7 | 1.7 | 0.00 | 0.00 | 0.00 | 51 | 1011.9 |
| 20260504031537 | 50 | 62 | 0.0 | 0.0 | 0.00 | 0.00 | 0.00 | 50 | 1011.9 |
| 20260504031033 | 50 | 232 | 0.9 | 1.7 | 0.00 | 0.00 | 0.00 | 50 | 1012.2 |
| 20260504030531 | 50 | 224 | 2.6 | 2.6 | 0.00 | 0.00 | 0.00 | 50 | 1012.2 |
| 20260504030027 | 50 | 218 | 0.9 | 2.6 | 0.00 | 0.00 | 0.00 | 51 | 1012.2 |
| 20260504025524 | 50 | 279 | 1.7 | 2.6 | 0.00 | 0.00 | 0.00 | 50 | 1012.2 |
| 20260504025020 | 50 | 176 | 0.9 | 0.9 | 0.00 | 0.00 | 0.00 | 50 | 1012.3 |
| 20260504024518 | 50 | 180 | 1.7 | 2.6 | 0.00 | 0.00 | 0.00 | 50 | 1012.1 |
| 20260504024015 | 50 | 173 | 0.9 | 0.9 | 0.00 | 0.00 | 0.00 | 50 | 1012.2 |
| 20260504023511 | 50 | 185 | 0.9 | 0.9 | 0.00 | 0.00 | 0.00 | 50 | 1012.3 |
| 20260504023007 | 50 | 152 | 2.6 | 2.6 | 0.00 | 0.00 | 0.00 | 51 | 1012.2 |
| 20260504022503 | 50 | 242 | 1.7 | 1.7 | 0.00 | 0.00 | 0.00 | 50 | 1012.1 |
| 20260504022000 | 50 | 208 | 1.7 | 1.7 | 0.00 | 0.00 | 0.00 | 48 | 1012.2 |
| 20260504021457 | 51 | 161 | 1.7 | 1.7 | 0.00 | 0.00 | 0.00 | 49 | 1012.1 |
| 20260504020954 | 50 | 156 | 1.7 | 2.6 | 0.00 | 0.00 | 0.00 | 49 | 1012.1 |
| 20260504020450 | 51 | 146 | 0.9 | 0.9 | 0.00 | 0.00 | 0.00 | 49 | 1012.2 |
| 20260504015947 | 51 | 273 | 1.7 | 1.7 | 0.00 | 0.00 | 0.00 | 48 | 1012.3 |
| 20260504015443 | 51 | 221 | 0.9 | 1.7 | 0.00 | 0.00 | 0.00 | 49 | 1012.1 |
| 20260504014939 | 51 | 200 | 1.7 | 1.7 | 0.00 | 0.00 | 0.00 | 48 | 1012.1 |
| 20260504014436 | 51 | 117 | 0.9 | 0.9 | 0.00 | 0.00 | 0.00 | 47 | 1012.1 |
| 20260504013933 | 51 | 228 | 3.5 | 4.3 | 0.00 | 0.00 | 0.00 | 46 | 1011.9 |
| 20260504013431 | 51 | 102 | 0.0 | 0.9 | 0.00 | 0.00 | 0.00 | 49 | 1011.7 |
| 20260504012927 | 52 | 153 | 0.9 | 0.9 | 0.00 | 0.00 | 0.00 | 48 | 1011.6 |
| 20260504012425 | 51 | 178 | 0.9 | 1.7 | 0.00 | 0.00 | 0.00 | 47 | 1011.7 |
| 20260504011923 | 51 | 164 | 2.6 | 2.6 | 0.00 | 0.00 | 0.00 | 46 | 1011.9 |
| 20260504011419 | 51 | 155 | 2.6 | 2.6 | 0.00 | 0.00 | 0.00 | 47 | 1011.6 |
| 20260504010915 | 52 | 238 | 0.0 | 0.0 | 0.00 | 0.00 | 0.00 | 47 | 1011.4 |
| 20260504010411 | 53 | 76 | 0.0 | 0.9 | 0.00 | 0.00 | 0.00 | 45 | 1011.4 |
| 20260504005908 | 53 | 207 | 1.7 | 2.6 | 0.00 | 0.00 | 0.00 | 44 | 1011.4 |
| 20260504005404 | 53 | 190 | 1.7 | 2.6 | 0.00 | 0.00 | 0.00 | 43 | 1011.5 |
| 20260504004903 | 53 | 183 | 0.0 | 1.7 | 0.00 | 0.00 | 0.00 | 41 | 1011.7 |
| 20260504004400 | 53 | 119 | 2.6 | 2.6 | 0.00 | 0.00 | 0.00 | 42 | 1011.6 |
| 20260504003856 | 53 | 305 | 0.9 | 1.7 | 0.00 | 0.00 | 0.00 | 41 | 1011.3 |
| 20260504003353 | 54 | 149 | 0.9 | 1.7 | 0.00 | 0.00 | 0.00 | 42 | 1011.6 |
| 20260504002849 | 54 | 41 | 0.9 | 0.9 | 0.00 | 0.00 | 0.00 | 42 | 1011.3 |
| 20260504002346 | 54 | 313 | 0.9 | 0.9 | 0.00 | 0.00 | 0.00 | 41 | 1011.3 |
| 20260504001844 | 54 | 163 | 1.7 | 1.7 | 0.00 | 0.00 | 0.00 | 40 | 1011.4 |
| 20260504001341 | 54 | 23 | 0.0 | 0.9 | 0.00 | 0.00 | 0.00 | 41 | 1011.1 |
| 20260504000837 | 55 | 343 | 1.7 | 1.7 | 0.00 | 0.00 | 0.00 | 41 | 1011.1 |
| 20260504000335 | 55 | 170 | 0.9 | 1.7 | 0.00 | 0.00 | 0.00 | 40 | 1011.1 |
| 20260503235832 | 55 | 138 | 0.9 | 0.9 | 0.00 | 0.00 | 0.00 | 40 | 1011.2 |
| 20260503235330 | 55 | 171 | 1.7 | 2.6 | 0.00 | 0.00 | 0.00 | 39 | 1011.2 |
| 20260503234827 | 55 | 231 | 1.7 | 2.6 | 0.00 | 0.00 | 0.00 | 39 | 1011.1 |
| 20260503234325 | 55 | 40 | 0.9 | 0.9 | 0.00 | 0.00 | 0.00 | 40 | 1011.0 |
| 20260503233822 | 55 | 44 | 0.0 | 0.9 | 0.00 | 0.00 | 0.00 | 40 | 1010.9 |
| 20260503233318 | 56 | 293 | 0.9 | 0.9 | 0.00 | 0.00 | 0.00 | 40 | 1010.9 |
| 20260503232815 | 55 | 205 | 1.7 | 1.7 | 0.00 | 0.00 | 0.00 | 40 | 1010.8 |
| 20260503232312 | 55 | 191 | 0.0 | 0.9 | 0.00 | 0.00 | 0.00 | 41 | 1010.7 |
| 20260503231810 | 56 | 150 | 0.9 | 1.7 | 0.00 | 0.00 | 0.00 | 39 | 1010.9 |
| 20260503231307 | 56 | 244 | 1.7 | 2.6 | 0.00 | 0.00 | 0.00 | 40 | 1010.8 |
| 20260503230803 | 56 | 62 | 0.9 | 0.9 | 0.00 | 0.00 | 0.00 | 40 | 1010.7 |
| 20260503230300 | 56 | 335 | 2.6 | 2.6 | 0.00 | 0.00 | 0.00 | 40 | 1010.6 |
| 20260503225757 | 56 | 34 | 0.0 | 0.0 | 0.00 | 0.00 | 0.00 | 39 | 1010.8 |
| 20260503225253 | 56 | 55 | 0.9 | 1.7 | 0.00 | 0.00 | 0.00 | 41 | 1010.8 |
| 20260503224750 | 56 | 28 | 0.0 | 0.0 | 0.00 | 0.00 | 0.00 | 43 | 1010.9 |
| 20260503224247 | 56 | 34 | 0.0 | 0.0 | 0.00 | 0.00 | 0.00 | 41 | 1010.7 |
| 20260503223745 | 56 | 18 | 1.7 | 1.7 | 0.00 | 0.00 | 0.00 | 40 | 1010.7 |
| 20260503223242 | 57 | 350 | 0.0 | 0.9 | 0.00 | 0.00 | 0.00 | 41 | 1010.7 |
| 20260503222738 | 57 | 293 | 2.6 | 5.2 | 0.00 | 0.00 | 0.00 | 38 | 1010.7 |
| 20260503222236 | 57 | 29 | 0.9 | 0.9 | 0.00 | 0.00 | 0.00 | 39 | 1010.8 |
| 20260503221734 | 57 | 95 | 0.9 | 1.7 | 0.00 | 0.00 | 0.00 | 36 | 1010.7 |
| 20260503221232 | 58 | 17 | 0.0 | 0.0 | 0.00 | 0.00 | 0.00 | 39 | 1010.8 |
| 20260503220728 | 58 | 13 | 0.0 | 0.9 | 0.00 | 0.00 | 0.00 | 38 | 1010.9 |
| 20260503220225 | 58 | 359 | 0.0 | 0.9 | 0.00 | 0.00 | 0.00 | 39 | 1010.7 |
| 20260503215722 | 58 | 345 | 0.0 | 0.0 | 0.00 | 0.00 | 0.00 | 41 | 1010.8 |
| 20260503215219 | 58 | 297 | 1.7 | 1.7 | 0.00 | 0.00 | 0.00 | 38 | 1010.7 |
| 20260503214717 | 57 | 323 | 1.7 | 2.6 | 0.00 | 0.00 | 0.00 | 38 | 1011.0 |
| 20260503214213 | 57 | 330 | 0.9 | 1.7 | 0.00 | 0.00 | 0.00 | 41 | 1010.9 |
| 20260503213712 | 58 | 1 | 0.9 | 1.7 | 0.00 | 0.00 | 0.00 | 40 | 1010.8 |
| 20260503213208 | 58 | 37 | 0.0 | 0.0 | 0.00 | 0.00 | 0.00 | 40 | 1010.7 |
| 20260503212705 | 58 | 45 | 0.9 | 1.7 | 0.00 | 0.00 | 0.00 | 39 | 1010.7 |
| 20260503212203 | 57 | 344 | 0.9 | 0.9 | 0.00 | 0.00 | 0.00 | 38 | 1010.4 |
| 20260503211700 | 57 | 318 | 0.9 | 1.7 | 0.00 | 0.00 | 0.00 | 36 | 1010.5 |
| 20260503211156 | 58 | 11 | 0.0 | 0.0 | 0.00 | 0.00 | 0.00 | 40 | 1010.4 |
| 20260503210652 | 57 | 16 | 0.9 | 0.9 | 0.00 | 0.00 | 0.00 | 36 | 1010.6 |
| 20260503210149 | 57 | 357 | 1.7 | 1.7 | 0.00 | 0.00 | 0.00 | 36 | 1010.6 |
| 20260503205644 | 57 | 314 | 3.5 | 5.2 | 0.00 | 0.00 | 0.00 | 38 | 1010.4 |
| 20260503205141 | 57 | 39 | 0.9 | 1.7 | 0.00 | 0.00 | 0.00 | 37 | 1010.4 |
| 20260503204638 | 57 | 29 | 0.0 | 0.9 | 0.00 | 0.00 | 0.00 | 38 | 1010.6 |
| 20260503204135 | 57 | 301 | 3.5 | 4.3 | 0.00 | 0.00 | 0.00 | 35 | 1010.6 |
| 20260503203632 | 57 | 349 | 2.6 | 4.3 | 0.00 | 0.00 | 0.00 | 37 | 1010.5 |
| 20260503203130 | 58 | 66 | 1.7 | 1.7 | 0.00 | 0.00 | 0.00 | 38 | 1010.4 |
| 20260503202627 | 58 | 337 | 0.9 | 0.9 | 0.00 | 0.00 | 0.00 | 38 | 1010.5 |
| 20260503202125 | 58 | 29 | 0.9 | 0.9 | 0.00 | 0.00 | 0.00 | 34 | 1010.4 |
| 20260503201623 | 58 | 57 | 0.9 | 0.9 | 0.00 | 0.00 | 0.00 | 35 | 1010.5 |
| 20260503201120 | 59 | 344 | 0.9 | 1.7 | 0.00 | 0.00 | 0.00 | 36 | 1010.7 |
| 20260503200616 | 57 | 15 | 0.9 | 1.7 | 0.00 | 0.00 | 0.00 | 36 | 1010.7 |
| 20260503200113 | 57 | 347 | 0.9 | 1.7 | 0.00 | 0.00 | 0.00 | 35 | 1011.0 |
| 20260503195610 | 57 | 1 | 1.7 | 1.7 | 0.00 | 0.00 | 0.00 | 33 | 1010.7 |
| 20260503195106 | 58 | 28 | 1.7 | 2.6 | 0.00 | 0.00 | 0.00 | 37 | 1010.9 |
| 20260503194604 | 59 | 144 | 1.7 | 1.7 | 0.00 | 0.00 | 0.00 | 34 | 1010.9 |
| 20260503194058 | 58 | 328 | 2.6 | 2.6 | 0.00 | 0.00 | 0.00 | 37 | 1011.0 |
| 20260503193555 | 57 | 329 | 4.3 | 6.1 | 0.00 | 0.00 | 0.00 | 35 | 1011.0 |
| 20260503193050 | 56 | 13 | 2.6 | 4.3 | 0.00 | 0.00 | 0.00 | 36 | 1011.1 |
| 20260503192547 | 58 | 38 | 2.6 | 2.6 | 0.00 | 0.00 | 0.00 | 39 | 1011.1 |
| 20260503192043 | 57 | 12 | 0.9 | 1.7 | 0.00 | 0.00 | 0.00 | 35 | 1011.2 |
| 20260503191540 | 58 | 338 | 1.7 | 2.6 | 0.00 | 0.00 | 0.00 | 40 | 1011.2 |
| 20260503191037 | 59 | 337 | 1.7 | 1.7 | 0.00 | 0.00 | 0.00 | 40 | 1011.3 |
| 20260503190533 | 58 | 328 | 1.7 | 1.7 | 0.00 | 0.00 | 0.00 | 38 | 1011.5 |
| 20260503190030 | 57 | 317 | 1.7 | 1.7 | 0.00 | 0.00 | 0.00 | 40 | 1011.7 |
| 20260503185526 | 54 | 277 | 0.9 | 1.7 | 0.00 | 0.00 | 0.00 | 42 | 1011.5 |
| 20260503185021 | 55 | 348 | 0.9 | 1.7 | 0.00 | 0.00 | 0.00 | 43 | 1011.5 |
| 20260503184518 | 55 | 18 | 0.9 | 0.9 | 0.00 | 0.00 | 0.00 | 38 | 1011.6 |
| 20260503184014 | 58 | 3 | 0.9 | 0.9 | 0.00 | 0.00 | 0.00 | 39 | 1011.8 |
| 20260503183511 | 57 | 41 | 0.0 | 0.9 | 0.00 | 0.00 | 0.00 | 38 | 1011.9 |
| 20260503183008 | 58 | 327 | 1.7 | 1.7 | 0.00 | 0.00 | 0.00 | 39 | 1012.1 |
| 20260503182507 | 56 | 343 | 0.9 | 0.9 | 0.00 | 0.00 | 0.00 | 40 | 1012.1 |
| 20260503182005 | 55 | 348 | 0.9 | 1.7 | 0.00 | 0.00 | 0.00 | 45 | 1012.2 |
| 20260503181501 | 56 | 79 | 1.7 | 1.7 | 0.00 | 0.00 | 0.00 | 43 | 1012.1 |
| 20260503180956 | 55 | 38 | 1.7 | 1.7 | 0.00 | 0.00 | 0.00 | 41 | 1011.9 |
| 20260503180455 | 55 | 52 | 1.7 | 1.7 | 0.00 | 0.00 | 0.00 | 47 | 1012.2 |
| 20260503175951 | 55 | 356 | 1.7 | 2.6 | 0.00 | 0.00 | 0.00 | 42 | 1012.4 |
| 20260503175449 | 54 | 269 | 6.1 | 13.9 | 0.00 | 0.00 | 0.00 | 42 | 1012.5 |
| 20260503174945 | 53 | 345 | 0.9 | 1.7 | 0.00 | 0.00 | 0.00 | 43 | 1012.4 |
| 20260503174443 | 53 | 42 | 1.7 | 1.7 | 0.00 | 0.00 | 0.00 | 46 | 1012.6 |
| 20260503173938 | 51 | 341 | 0.9 | 1.7 | 0.00 | 0.00 | 0.00 | 45 | 1012.6 |
| 20260503173434 | 52 | 27 | 2.6 | 5.2 | 0.00 | 0.00 | 0.00 | 43 | 1012.7 |
| 20260503172931 | 52 | 14 | 1.7 | 2.6 | 0.00 | 0.00 | 0.00 | 43 | 1012.8 |
| 20260503172429 | 52 | 10 | 3.5 | 4.3 | 0.00 | 0.00 | 0.00 | 39 | 1012.9 |
| 20260503171925 | 52 | 67 | 2.6 | 5.2 | 0.00 | 0.00 | 0.00 | 40 | 1012.9 |
| 20260503171422 | 53 | 24 | 0.9 | 0.9 | 0.00 | 0.00 | 0.00 | 42 | 1012.9 |
| 20260503170919 | 51 | 6 | 0.9 | 1.7 | 0.00 | 0.00 | 0.00 | 46 | 1013.1 |
| 20260503170415 | 52 | 346 | 2.6 | 2.6 | 0.00 | 0.00 | 0.00 | 41 | 1013.1 |
| 20260503150808 | 48 | 303 | 1.7 | 2.6 | 0.00 | 0.00 | 0.00 | 47 | 1013.6 |
| 20260503150303 | 50 | 340 | 0.9 | 0.9 | 0.00 | 0.00 | 0.00 | 45 | 1013.6 |
| 20260503140228 | 45 | 2 | 0.0 | 0.0 | 0.00 | 0.00 | 0.00 | 57 | 1013.6 |
| 20260503131158 | 44 | 21 | 1.7 | 1.7 | 0.00 | 0.00 | 0.00 | 64 | 1013.8 |
| 20260503130655 | 44 | 331 | 2.6 | 4.3 | 0.00 | 0.00 | 0.00 | 62 | 1013.8 |
| 20260503130152 | 44 | 26 | 3.5 | 4.3 | 0.00 | 0.00 | 0.00 | 65 | 1013.7 |